KA5FVT Weather Reports


time (UTC)temp
C
wind
direction
speed
KPH
gust
KPH
rain 1hr
cm
rain 24hr
cm
rain mn
cm
humidity
%
barometer
mb
20260505011929 24 171 1.6 1.6 0.00 0.00 0.00 70 1009.9
20260505011426 24 171 1.6 3.2 0.00 0.00 0.00 70 1010.0
20260505010927 24 171 0.0 3.2 0.00 0.00 0.00 70 1010.0
20260505010429 24 171 0.0 1.6 0.00 0.00 0.00 70 1010.0
20260505005926 24 171 0.0 1.6 0.00 0.00 0.00 70 1009.9
20260505005429 25 171 1.6 3.2 0.00 0.00 0.00 69 1009.9
20260505004926 25 171 0.0 3.2 0.00 0.00 0.00 69 1009.9
20260505004426 25 171 0.0 1.6 0.00 0.00 0.00 69 1009.8
20260505003929 25 171 0.0 1.6 0.00 0.00 0.00 68 1009.8
20260505003431 25 171 0.0 3.2 0.00 0.00 0.00 68 1009.7
20260505002926 25 171 1.6 1.6 0.00 0.00 0.00 68 1009.6
20260505002429 25 171 0.0 1.6 0.00 0.00 0.00 68 1009.7
20260505001930 25 171 0.0 3.2 0.00 0.00 0.00 67 1009.9
20260505001426 25 171 0.0 1.6 0.00 0.00 0.00 67 1009.9
20260505000926 25 171 0.0 3.2 0.00 0.00 0.00 67 1010.0
20260505000428 25 171 0.0 3.2 0.00 0.00 0.00 66 1010.0
20260504235927 25 171 1.6 3.2 0.00 0.00 0.00 66 1010.0
20260504235426 25 173 1.6 3.2 0.00 0.00 0.00 66 1010.0
20260504234926 25 145 0.0 3.2 0.00 0.00 0.00 66 1009.9
20260504234426 25 139 0.0 3.2 0.00 0.00 0.00 65 1009.9
20260504233927 26 173 3.2 3.2 0.00 0.00 0.00 65 1010.1
20260504233429 26 179 1.6 3.2 0.00 0.00 0.00 65 1010.2
20260504232926 26 180 1.6 3.2 0.00 0.00 0.00 65 1010.2
20260504232426 26 180 1.6 3.2 0.00 0.00 0.00 65 1010.1
20260504231926 26 180 3.2 3.2 0.00 0.00 0.00 65 1010.1
20260504231426 26 180 0.0 3.2 0.00 0.00 0.00 64 1010.2
20260504230926 26 180 1.6 3.2 0.00 0.00 0.00 64 1010.3
20260504230427 26 174 1.6 3.2 0.00 0.00 0.00 64 1010.5
20260504225929 26 187 1.6 1.6 0.00 0.00 0.00 65 1010.4
20260504225426 26 187 0.0 3.2 0.00 0.00 0.00 63 1010.4
20260504224929 26 189 1.6 3.2 0.00 0.00 0.00 63 1010.4
20260504224429 26 178 1.6 3.2 0.00 0.00 0.00 63 1010.5
20260504223926 26 178 0.0 6.4 0.00 0.00 0.00 62 1010.6
20260504223427 26 197 0.0 3.2 0.00 0.00 0.00 62 1010.6
20260504222926 26 197 1.6 3.2 0.00 0.00 0.00 61 1010.6
20260504222426 26 197 1.6 3.2 0.00 0.00 0.00 60 1010.6
20260504221926 26 198 0.0 3.2 0.00 0.00 0.00 60 1010.7
20260504221429 27 197 1.6 3.2 0.00 0.00 0.00 61 1010.7
20260504220926 27 197 1.6 3.2 0.00 0.00 0.00 59 1010.8
20260504220426 27 197 1.6 3.2 0.00 0.00 0.00 58 1010.8
20260504215926 27 197 1.6 3.2 0.00 0.00 0.00 59 1010.8
20260504215427 27 198 0.0 1.6 0.00 0.00 0.00 58 1010.9
20260504214926 27 198 0.0 3.2 0.00 0.00 0.00 58 1011.0
20260504214426 27 229 0.0 3.2 0.00 0.00 0.00 58 1011.0
20260504213926 27 220 1.6 3.2 0.00 0.00 0.00 58 1010.9
20260504213426 27 220 1.6 3.2 0.00 0.00 0.00 57 1011.0
20260504212927 27 221 1.6 1.6 0.00 0.00 0.00 56 1011.2
20260504212427 27 221 0.0 3.2 0.00 0.00 0.00 56 1011.1
20260504211926 27 221 0.0 3.2 0.00 0.00 0.00 56 1011.3
20260504211426 27 221 1.6 3.2 0.00 0.00 0.00 56 1011.3
20260504210929 27 221 3.2 3.2 0.00 0.00 0.00 56 1011.4
20260504210426 27 221 1.6 3.2 0.00 0.00 0.00 56 1011.3
20260504205926 27 221 0.0 3.2 0.00 0.00 0.00 57 1011.4
20260504205426 27 221 1.6 3.2 0.00 0.00 0.00 56 1011.6
20260504204927 27 227 1.6 3.2 0.00 0.00 0.00 57 1011.7
20260504204426 27 295 3.2 4.8 0.00 0.00 0.00 56 1011.6
20260504203926 27 261 1.6 4.8 0.00 0.00 0.00 56 1011.8
20260504203426 27 186 1.6 4.8 0.00 0.00 0.00 56 1011.7
20260504202926 27 186 1.6 3.2 0.00 0.00 0.00 56 1011.9
20260504202427 27 183 0.0 4.8 0.00 0.00 0.00 56 1012.1
20260504201927 27 223 1.6 3.2 0.00 0.00 0.00 55 1012.1
20260504201426 27 223 3.2 3.2 0.00 0.00 0.00 55 1012.2
20260504200926 27 185 0.0 3.2 0.00 0.00 0.00 56 1012.3
20260504200426 27 185 3.2 3.2 0.00 0.00 0.00 55 1012.3
20260504195926 27 5 0.0 1.6 0.00 0.00 0.00 56 1012.4
20260504195426 27 5 1.6 3.2 0.00 0.00 0.00 54 1012.7
20260504194926 27 5 1.6 3.2 0.00 0.00 0.00 56 1012.6
20260504194427 27 195 0.0 3.2 0.00 0.00 0.00 56 1012.8
20260504193926 27 269 1.6 3.2 0.00 0.00 0.00 55 1012.7
20260504193426 27 269 0.0 4.8 0.00 0.00 0.00 56 1012.8
20260504192926 27 166 1.6 3.2 0.00 0.00 0.00 56 1012.8
20260504192426 27 149 0.0 3.2 0.00 0.00 0.00 54 1013.0
20260504191927 27 94 1.6 3.2 0.00 0.00 0.00 55 1013.1
20260504191427 27 173 3.2 3.2 0.00 0.00 0.00 54 1013.1
20260504190926 27 173 1.6 3.2 0.00 0.00 0.00 54 1013.1
20260504190426 27 171 1.6 3.2 0.00 0.00 0.00 54 1013.2
20260504185929 27 224 1.6 3.2 0.00 0.00 0.00 56 1013.3
20260504185429 27 224 0.0 3.2 0.00 0.00 0.00 55 1013.5
20260504184927 27 227 0.0 3.2 0.00 0.00 0.00 55 1013.5
20260504184429 27 242 1.6 3.2 0.00 0.00 0.00 55 1013.4
20260504183926 27 242 3.2 4.8 0.00 0.00 0.00 54 1013.5
20260504183426 27 200 3.2 3.2 0.00 0.00 0.00 53 1013.5
20260504182927 27 195 1.6 3.2 0.00 0.00 0.00 54 1013.3
20260504182430 27 238 1.6 3.2 0.00 0.00 0.00 55 1013.3
20260504181926 27 235 1.6 3.2 0.00 0.00 0.00 54 1013.4
20260504181426 27 160 1.6 3.2 0.00 0.00 0.00 52 1013.5
20260504180926 27 140 0.0 6.4 0.00 0.00 0.00 52 1013.7
20260504180426 27 209 3.2 3.2 0.00 0.00 0.00 54 1013.9
20260504175926 27 167 1.6 6.4 0.00 0.00 0.00 54 1013.9
20260504175426 27 286 1.6 3.2 0.00 0.00 0.00 55 1014.1
20260504174926 27 142 0.0 3.2 0.00 0.00 0.00 53 1013.9
20260504174426 27 142 0.0 3.2 0.00 0.00 0.00 56 1014.0
20260504173927 27 142 1.6 3.2 0.00 0.00 0.00 57 1014.2
20260504173428 27 143 1.6 3.2 0.00 0.00 0.00 56 1014.2
20260504172927 26 182 1.6 3.2 0.00 0.00 0.00 57 1014.1
20260504172430 26 184 1.6 3.2 0.00 0.00 0.00 55 1014.2
20260504171927 26 177 1.6 3.2 0.00 0.00 0.00 56 1014.4
20260504171430 26 177 1.6 3.2 0.00 0.00 0.00 56 1014.5
20260504170926 26 240 0.0 3.2 0.00 0.00 0.00 56 1014.5
20260504170426 26 213 1.6 3.2 0.00 0.00 0.00 58 1014.5
20260504160426 24 175 3.2 3.2 0.00 0.00 0.00 62 1015.4
20260504150926 22 130 1.6 3.2 0.00 0.00 0.00 66 1015.5
20260504150426 22 163 0.0 3.2 0.00 0.00 0.00 66 1015.5
20260504140927 20 195 0.0 1.6 0.00 0.00 0.00 68 1015.4
20260504140426 20 196 0.0 3.2 0.00 0.00 0.00 69 1015.3
20260504130426 16 200 0.0 0.0 0.00 0.00 0.00 82 1015.5
20260504110426 15 163 0.0 0.0 0.00 0.00 0.00 80 1015.1
20260504100429 16 163 0.0 0.0 0.00 0.00 0.00 77 1015.4
20260504081926 17 163 0.0 0.0 0.00 0.00 0.00 75 1016.0
20260504081429 17 163 0.0 0.0 0.00 0.00 0.00 75 1016.0
20260504080926 17 163 0.0 0.0 0.00 0.00 0.00 74 1016.1
20260504080426 17 163 0.0 0.0 0.00 0.00 0.00 74 1016.1
20260504050427 18 163 0.0 0.0 0.00 0.00 0.00 64 1017.9
20260504045926 18 163 0.0 0.0 0.00 0.00 0.00 64 1017.9
20260504045429 19 163 0.0 0.0 0.00 0.00 0.00 63 1017.9
20260504044926 19 163 0.0 0.0 0.00 0.00 0.00 63 1018.0
20260504044426 19 163 0.0 0.0 0.00 0.00 0.00 62 1018.0
20260504043926 19 163 0.0 0.0 0.00 0.00 0.00 62 1018.0
20260504043426 19 163 0.0 0.0 0.00 0.00 0.00 61 1018.0
20260504042930 19 163 0.0 1.6 0.00 0.00 0.00 61 1018.1
20260504042429 19 163 0.0 0.0 0.00 0.00 0.00 61 1018.0
20260504041926 20 163 0.0 0.0 0.00 0.00 0.00 61 1018.1
20260504041426 20 163 0.0 0.0 0.00 0.00 0.00 61 1018.2
20260504040926 20 163 0.0 0.0 0.00 0.00 0.00 60 1018.2
20260504040426 20 163 0.0 0.0 0.00 0.00 0.00 59 1018.1
20260504035927 20 163 0.0 0.0 0.00 0.00 0.00 59 1018.2
20260504035427 20 163 0.0 0.0 0.00 0.00 0.00 59 1018.0
20260504034926 20 163 0.0 0.0 0.00 0.00 0.00 58 1018.0
20260504034426 20 163 0.0 0.0 0.00 0.00 0.00 58 1018.2
20260504033926 20 163 0.0 0.0 0.00 0.00 0.00 58 1018.2
20260504033429 20 163 0.0 0.0 0.00 0.00 0.00 57 1018.2
20260504032929 20 163 0.0 0.0 0.00 0.00 0.00 57 1018.2
20260504032426 20 163 0.0 0.0 0.00 0.00 0.00 55 1018.3
20260504031927 20 163 0.0 0.0 0.00 0.00 0.00 55 1017.9
20260504031429 21 163 0.0 0.0 0.00 0.00 0.00 55 1017.8
20260504030926 21 163 0.0 0.0 0.00 0.00 0.00 55 1017.8
20260504030426 21 163 0.0 0.0 0.00 0.00 0.00 54 1017.9
20260504025926 21 163 0.0 0.0 0.00 0.00 0.00 54 1017.9
20260504025426 21 163 0.0 0.0 0.00 0.00 0.00 53 1017.9
20260504024926 21 163 0.0 1.6 0.00 0.00 0.00 53 1017.8
20260504024427 21 163 0.0 1.6 0.00 0.00 0.00 52 1017.9
20260504023926 21 163 1.6 3.2 0.00 0.00 0.00 51 1017.8
20260504023426 21 163 1.6 3.2 0.00 0.00 0.00 52 1017.8
20260504022926 21 163 1.6 1.6 0.00 0.00 0.00 51 1017.9
20260504022426 21 163 0.0 3.2 0.00 0.00 0.00 51 1017.8
20260504021926 22 163 0.0 1.6 0.00 0.00 0.00 51 1017.8
20260504021426 22 163 0.0 3.2 0.00 0.00 0.00 50 1017.6
20260504020930 22 163 1.6 3.2 0.00 0.00 0.00 49 1017.5
20260504020426 22 163 1.6 1.6 0.00 0.00 0.00 50 1017.5
20260504015929 22 163 0.0 1.6 0.00 0.00 0.00 49 1017.5
20260504015426 22 163 1.6 1.6 0.00 0.00 0.00 49 1017.5
20260504014926 22 163 0.0 1.6 0.00 0.00 0.00 49 1017.5
20260504014429 22 163 0.0 3.2 0.00 0.00 0.00 48 1017.5
20260504013929 22 163 1.6 1.6 0.00 0.00 0.00 48 1017.4
20260504013427 22 163 0.0 1.6 0.00 0.00 0.00 49 1017.4
20260504012929 22 163 1.6 1.6 0.00 0.00 0.00 47 1017.3
20260504012426 22 163 0.0 0.0 0.00 0.00 0.00 47 1017.1